Location: Trois-Rivi�res
(46.3500°N, 72.5500°W)
Time: 13:31:23
(UTC-04:00)

Vanguard 1 - Visible Passes

Search period start: 25 June 2018 00:00
Search period end: 05 July 2018 00:00
Orbit: 650 x 3833 km, 34.3° (Epoch: 24 June)

Date Brightness Start Highest point End Pass type
(mag) Time Alt. Az. Time Alt. Az. Time Alt. Az.
28 Jun 12.3 03:33:29 10° SSE 03:36:08 12° SE 03:39:14 10° ESE visible
29 Jun 12.0 03:51:58 10° S 03:56:18 17° SE 04:02:06 10° ESE visible
30 Jun 11.9 04:11:28 10° SSW 04:16:34 22° SE 04:24:03 10° E visible
03 Jul 11.8 02:56:58 11° SSE 02:59:14 13° SE 03:02:16 10° ESE visible
04 Jul 11.5 03:16:43 13° S 03:19:33 18° SSE 03:24:26 10° ESE visible
